Location: Krishnamma Banjar
(17.2175°N, 80.5166°E)
Time: 10:31:52
(UTC+00:00)

ADEOS - Pass Details

Date: 03 August 2024
Orbit: 790 x 793 km, 98.9° (Epoch: 15 September)

Event Time Altitude Azimuth Distance (km) Brightness Sun altitude
Exits shadow 13:56:10 - 163° (SSE) 3,309 6.4 -11.2°
Rises 13:56:15 0° 163° (SSE) 3,276 6.4 -11.2°
Reaches altitude 10° 13:58:34 10° 162° (SSE) 2,349 5.6 -11.7°
Maximum altitude 14:03:45 76° 77° (ENE) 816 3.5 -12.9°
Drops below altitude 10° 14:08:56 10° 352° (N) 2,355 6.5 -14.0°
Sets 14:11:16 0° 350° (N) 3,285 7.3 -14.5°
